Location: Izdebno
(52.6670°N, 16.2170°E)
Time: 05:08:52
(UTC+02:00)

A-11 Canister half - Pass Details

Date: 08 February 2023
Orbit: 1526 x 1682 km, 47.3° (Epoch: 25 March)

Event Time Altitude Azimuth Distance (km) Brightness Sun altitude
Rises 12:21:36 0° 283° (WNW) 4,721 11.5 22.3°
Reaches altitude 10° 12:27:10 10° 257° (WSW) 3,763 11.4 22.2°
Maximum altitude 12:30:35 12° 235° (SW) 3,589 11.7 22.2°
Drops below altitude 10° 12:34:00 10° 213° (SSW) 3,801 12.3 22.1°
Sets 12:39:45 0° 187° (S) 4,819 13.1 22.0°
